Terug naar catalogus

QIANFAN-159

ActiefCommunicatiePO
NORAD 69118·PAYLOAD·🇨🇳 China

Gelanceerd May 17, 2026 vanaf Wenchang Space Launch Site

Loading…

Volgende Passages (komende 24 uur)

TLE

VersSource: Space-Track

Epoch: Sep 14, 2026, 13:47 UTC

1 69118U 26108Q   26257.57451816  .00000108  00000-0  14805-3 0  9991
2 69118  89.0179  13.0686 0001880 103.0001 257.1361 13.51022615 16533

Volg QIANFAN-159 in realtime met AllMySat

Download on the App Store